Weather History for Campo, CA

Change the Weather History Date:

Monday, February 10, 2014

  Actual Average Record
Temperature  
Mean Temperature 50 °F 49 °F  
Max Temperature 66 °F 64 °F 80 °F (1951)
Min Temperature 33 °F 35 °F 19 °F (1953)
Degree Days  
Heating Degree Days 15 16  
Month to date heating degree days 198 160  
Since 1 July heating degree days 1685 1776  
Cooling Degree Days 0 0  
Month to date cooling degree days 0 0  
Year to date cooling degree days 0 0  
Moisture  
Dew Point 41 °F    
Average Humidity 70    
Maximum Humidity 100    
Minimum Humidity 40    
Precipitation  
Precipitation 0.00 in 0.10 in 1.86 in (1963)
Month to date precipitation 0.39 1.04  
Year to date precipitation 0.47 4.02  
Since 1 July precipitation 4.66 9.60  
Snow  
Snow 0.00 in - - ()
Month to date snowfall 0.0  
Year to date snowfall 0.0  
Since 1 July snowfall 0.0  
Snow Depth 0.00 in    
Sea Level Pressure  
Sea Level Pressure 30.02 in    
Wind  
Wind Speed 8 mph (NE)    
Max Wind Speed 20 mph    
Max Gust Speed 24 mph    
T = Trace of Precipitation, MM = Missing Value Source: NWS Daily Summary

Daily Weather History Graph

Daily Weather History Graph

Search for Another Location

Airport:

Trip Planner

Search our weather history database for the weather conditions in past years. The results will help you decide how hot, cold, wet, or windy it might be!

Date:

Astronomy

Feb. 10, 2014 Rise Set
Actual Time 6:33 AM PST 5:27 PM PST
Civil Twilight 6:08 AM PST 5:52 PM PST
Nautical Twilight 5:38 AM PST 6:21 PM PST
Astronomical Twilight 5:10 AM PST 6:50 PM PST
Moon 2:05 PM PST (2/10) 3:24 AM PST (2/10)
Length of Visible Light 11h 44m
Length of Day
10h 53m
Waxing Gibbous, 85% of the Moon is Illuminated
Feb 10
Waxing Gibbous
Feb 14
Full
Feb 22
Last Quarter
Mar 1
New
Mar 8
First Quarter

Hourly Weather History & Observations

Time (PST) Temp. Windchill Dew Point Humidity Pressure Visibility Wind Dir Wind Speed Gust Speed Precip Events Conditions
12:52 AM 39.0 °F 35.7 °F 37.0 °F 93% 30.06 in - Variable 4.6 mph - N/A   Unknown
1:52 AM 37.9 °F 32.1 °F 36.0 °F 93% 30.06 in - ENE 8.1 mph - N/A   Unknown
2:52 AM 37.9 °F 34.4 °F 37.0 °F 97% 30.04 in - NE 4.6 mph - N/A   Unknown
3:52 AM 36.0 °F 31.1 °F 35.1 °F 97% 30.04 in - ENE 5.8 mph - N/A   Unknown
4:52 AM 36.0 °F 31.1 °F 34.0 °F 93% 30.04 in - NE 5.8 mph - N/A   Unknown
5:52 AM 34.0 °F 31.0 °F 33.1 °F 96% 30.05 in - NE 3.5 mph - N/A   Unknown
6:52 AM 33.1 °F 28.7 °F 32.0 °F 96% 30.08 in - Variable 4.6 mph - N/A   Unknown
7:52 AM 42.1 °F - 37.9 °F 85% 30.07 in - Calm Calm - N/A   Unknown
8:52 AM 52.0 °F - 45.0 °F 77% 30.06 in - SSW 10.4 mph - N/A   Unknown
9:52 AM 57.0 °F - 46.9 °F 69% 30.06 in - SW 10.4 mph 18.4 mph N/A   Unknown
10:52 AM 60.1 °F - 46.9 °F 62% 30.04 in - SSW 15.0 mph - N/A   Unknown
11:52 AM 64.0 °F - 46.0 °F 52% 30.02 in - WSW 8.1 mph - N/A   Unknown
12:52 PM 64.0 °F - 44.1 °F 48% 29.99 in - WSW 10.4 mph 20.7 mph N/A   Unknown
1:52 PM 66.0 °F - 41.0 °F 40% 29.96 in - WNW 15.0 mph 20.7 mph N/A   Unknown
2:52 PM 64.9 °F - 43.0 °F 45% 29.94 in - WSW 13.8 mph - N/A   Unknown
3:52 PM 62.1 °F - 44.1 °F 52% 29.96 in - SW 12.7 mph - N/A   Unknown
4:52 PM 60.1 °F - 48.0 °F 64% 29.96 in - West 9.2 mph - N/A   Unknown
5:52 PM 54.0 °F - 48.0 °F 80% 29.99 in - South 6.9 mph - N/A   Unknown
6:52 PM 51.1 °F - 48.0 °F 89% 30.01 in - Calm Calm - N/A   Unknown
7:52 PM 45.0 °F 42.6 °F 43.0 °F 93% 30.00 in - ENE 4.6 mph - N/A   Unknown
8:52 PM 42.1 °F 38.4 °F 41.0 °F 96% 30.02 in - East 5.8 mph - N/A   Unknown
9:52 PM 42.1 °F 39.2 °F 39.9 °F 92% 30.00 in - NNE 4.6 mph - N/A   Unknown
10:52 PM 39.9 °F 35.8 °F 37.9 °F 93% 30.01 in - NE 5.8 mph - N/A   Unknown
11:52 PM 37.9 °F 34.4 °F 36.0 °F 93% 30.00 in - ENE 4.6 mph - N/A   Unknown